SCP
0 0 0 0 0 0 0 0 0 0 0 0 0 0 0 0 0 0 0 0 0 0 0 0 0 0 0 0 0 0 0 0 0 0 0 0 0 0 0 0 0 0 0 0 0
0 0 0 0 0 0 0 0 0 0 0 0 0 0 0 0 0 0 0 0 0 0 0 0 0 0 0 0 0 0 0 0 0 0 0 0 0 0 0 0 0 0 0 0 0
0 0 0 0 0 0 0 0 0 0 0 0 0 0 0 0 0 0 0 0 0 0 0 0 0 0 0 0 0 0 0 0 0 0 0 0 0 0 0 0 0 0 0 0 0
0 0 0 0 0 0 0 0 0 0 0 0 0 0 0 0 0 0 0 0 0 0 0 0 0 0 0 0 0 0 0 0 0 0 0 0 0 0 0 0 0 0 0 0 0
0 0 0 0 0 0 0 0 0 0 0 0 0 0 0 0 0 0 -0 0 0 0 0 0 0 0 0 0 0 0 0 0 0 0 0 0 0 0 0 0 0 0 0 0 0
0 0 0 0 0 0 0 0 0 0 0 0 0 0 0 0 0 0 -0 -0 0 0 0 0 0 0 0 0 0 0 0 0 0 0 0 0 0 0 0 0 0 0 0 0 0
0 0 0 0 0 0 0 0 0 0 0 0 0 0 0 0 0 0 0 0 0 0 0 0 0 0 0 0 0 0 0 0 0 0 0 0 0 0 0 0 0 0 0 0 0
0 0 0 0 0 0 0 0 0 0 0 0 0 0 0 0 0 0 0 0 0 0 0 0 0 0 0 0 0 0 0 0 0 0 0 0 -0 0 0 0 0 0 0 0 0
0 0 0 0 0 0 0 -0 0 0 0 0 0 0 0 0 0 0 0 0 0 0 0 0 0 0 0 0 0 0 0 0 0 0 0 0 -0 0 0 0 0 0 0 0 0
0 0 0 0 0 0 0 -0 0 0 0 0 0 0 0 0 0 0 0 -0 0 0 0 0 0 0 0 0 0 0 0 0 0 0 0 0 -0 -0 0 0 0 0 0 0 0
0 0 0 0 0 0 0 0 0 0 0 0 0 0 0 0 0 0 0 0 0 0 0 0 0 0 0 0 0 0 0 0 0 0 0 0 0 -0 0 0 0 0 0 0 0
0 0 0 0 0 0 0 0 0 0 -0 0 0 0 0 0 0 0 0 0 0 0 0 0 0 0 0 -0 -0 0 0 0 0 0 0 0 0 0 -0 0 0 0 0 0 0
0 0 0 0 0 0 0 0 0 0 0 0 0 0 0 0 0 0 0 0 0 0 0 0 0 0 0 0 -0 0 0 0 0 0 0 0 -0 -0 -0 0 0 0 0 0 0
0 0 0 0 0 0 0 0 0 0 0 0 0 0 0 0 0 0 0 0 0 0 0 0 0 0 0 0 -0 0 0 0 0 0 0 0 0 -0 0 0 0 0 0 0 0
0 0 0 0 0 0 0 0 0 0 0 0 0 0 0 0 0 0 0 0 -0 0 0 0 0 0 0 -0 -0 -0 0 0 0 0 0 0 0 -0 -0 0 0 0 0 0 0
0 0 0 0 0 0 0 0 0 0 0 0 0 0 0 0 0 0 0 -0 -0 0 -0 0 -0 0 0 -0 -0 0 0 0 0 0 0 0 0 -0 0 0 0 0 0 0 0
0 0 0 0 0 0 0 0 0 0 0 0 0 0 0 0 0 -0 0 -0 -0 -0 -0 -0 -0 0 0 -0 -0 0 0 0 0 0 0 0 0 -0 0 0 0 0 0 0 0
-0 -0 0 0 0 0 0 0 0 0 -0 0 0 -0 0 0 -0 -0 0 0 -0 0 0 0 0 0 0 0 0 0 0 0 0 0 0 0 -0 -0 -0 -0 0 0 0 0 0
0 0 0 0 0 0 0 0 0 -0 0 0 -0 0 0 0 -0 -0 -0 -0 0 -0 -0 0 0 0 0 0 0 0 0 0 0 0 0 0 0 0 -0 0 0 0 0 0 0
0 0 0 0 0 0 0 0 0 0 0 0 0 0 0 -0 0 -0 0 0 0 -0 0 0 0 0 0 0 0 0 0 0 0 0 0 0 0 0 0 0 0 0 0 0 0
0 0 0 0 0 0 0 0 0 0 0 0 0 0 0 0 0 -0 0 -0 0 0 0 0 0 0 0 0 0 0 0 0 0 0 -0 -0 0 0 0 0 0 0 0 0 0
0 0 0 0 0 0 0 0 0 0 0 0 0 0 0 0 0 0 0 0 -0 0 0 0 0 0 0 0 0 0 0 0 0 0 0 0 0 0 0 0 0 0 0 0 0
0 0 0 0 0 0 0 0 0 0 0 0 0 0 0 0 0 0 0 -0 -0 0 0 0 0 0 0 0 0 0 0 0 0 0 0 0 0 0 0 0 0 0 0 0 0
0 0 0 0 0 0 0 0 0 0 0 0 0 0 0 0 0 0 -0 0 -0 0 0 0 0 0 0 0 0 0 0 0 0 0 0 0 0 0 0 0 0 0 0 0 0
0 0 0 0 0 0 0 0 0 0 0 0 -0 -0 -0 0 0 0 0 0 -0 -0 0 0 0 0 0 0 0 0 0 0 0 0 0 0 0 0 0 0 0 0 0 0 0
0 0 0 0 0 0 0 0 0 0 0 0 -0 0 0 0 0 0 0 0 0 -0 -0 0 0 0 0 0 0 0 -0 -0 0 0 0 0 0 0 0 0 0 0 0 0 0
0 0 0 0 0 0 0 0 0 0 0 0 -0 -0 -0 0 0 0 0 -0 0 0 -0 0 0 0 0 0 0 0 0 0 0 0 0 0 0 0 0 0 0 0 0 0 0
Wind_Speed_500mb
24 24 27 27 27 25 28 26 27 26 22 24 22 23 28 30 32 37 47 45 37 37 34 26 39 40 43 26 21 14 5 10 13 13 8 13 5 2 28 33 26 43 23 25 71
25 27 31 32 29 25 27 27 28 25 18 21 20 20 28 29 32 48 49 44 44 36 44 33 29 39 28 23 21 15 9 17 10 5 3 13 15 20 6 31 11 28 31 48 78
32 37 36 33 32 28 19 25 26 20 17 16 18 20 24 25 35 14 7 23 35 33 42 47 33 38 27 24 26 17 13 11 11 5 12 12 19 16 9 10 27 50 50 81 86
39 43 36 31 29 21 19 25 24 23 21 18 18 17 20 20 8 13 11 12 14 13 32 45 51 22 32 22 31 11 28 20 15 1 9 9 25 27 21 18 29 41 56 85 89
42 38 34 31 29 27 25 26 26 25 21 19 17 15 23 20 42 18 15 6 4 5 25 35 47 34 24 30 32 28 15 37 37 24 16 15 18 16 41 35 17 45 67 87 86
35 35 35 34 33 32 29 29 26 24 22 19 17 16 24 26 33 22 20 30 39 26 17 31 23 41 42 22 45 32 29 13 28 20 16 14 21 4 20 16 33 55 73 80 86
37 41 42 41 35 33 30 28 25 22 20 19 19 18 39 54 37 34 34 36 23 45 39 33 27 35 25 21 37 33 25 29 34 14 6 10 21 17 51 28 43 65 74 79 85
40 41 41 36 30 29 26 25 21 20 21 23 20 24 32 37 35 50 43 55 43 39 34 32 39 41 39 40 26 26 23 26 37 39 22 9 30 18 25 35 47 63 72 78 85
35 33 29 19 16 19 22 19 17 23 26 21 23 26 22 27 29 17 16 32 40 54 45 37 32 30 26 26 20 33 22 52 36 61 35 30 7 34 40 37 49 60 74 78 82
27 25 21 13 10 13 16 18 9 15 11 18 28 15 37 29 21 16 16 21 25 35 27 38 29 13 21 24 29 28 48 40 45 36 51 44 25 22 29 42 53 62 69 72 81
23 21 17 13 11 13 16 7 8 6 12 22 24 35 38 43 46 50 38 17 30 27 23 29 21 32 49 38 39 28 32 48 28 24 41 60 41 33 37 30 36 45 60 76 86
18 18 17 14 12 9 14 8 9 17 24 40 58 72 71 61 30 30 23 17 24 29 30 10 41 46 32 28 39 51 36 36 13 28 35 40 53 41 28 29 43 54 59 81 74
14 14 15 15 6 8 15 13 16 32 10 20 20 23 17 12 18 27 24 28 15 29 39 38 20 33 33 37 33 46 33 33 18 21 20 9 27 33 31 46 42 60 81 82 84
12 13 16 16 3 13 11 10 32 25 6 10 7 6 8 15 14 33 27 22 15 36 20 27 32 25 28 34 34 26 28 27 29 29 20 25 22 42 41 26 24 48 66 63 77
12 15 14 15 13 6 12 20 28 2 8 6 7 10 16 14 24 6 40 23 12 23 12 16 24 35 29 41 36 30 29 27 22 26 11 24 16 35 33 52 43 30 56 70 86
15 17 19 17 16 12 18 23 4 2 12 14 9 11 13 15 5 8 20 22 14 11 12 17 5 28 23 21 48 31 29 9 17 19 17 25 22 21 40 42 46 25 54 75 85
16 16 21 16 12 15 20 2 3 3 8 18 11 18 19 10 7 6 15 16 9 10 10 11 25 11 25 33 30 38 26 6 10 11 11 25 20 35 12 34 33 43 54 79 90
16 18 18 9 8 15 2 8 6 8 9 7 14 32 9 7 7 6 3 11 12 5 7 17 15 28 13 22 27 46 26 10 12 12 6 11 18 22 26 46 36 52 72 78 95
17 16 8 7 17 8 2 8 11 8 5 13 24 9 7 6 8 7 5 4 5 15 8 12 2 7 2 4 8 19 10 8 10 5 6 9 5 14 14 22 29 31 50 65 86
15 7 8 4 12 5 7 5 6 8 5 2 6 6 9 16 13 12 13 8 6 3 5 5 9 8 11 9 6 4 12 8 4 11 8 4 6 11 9 16 14 15 33 62 70
13 4 9 12 3 3 6 8 8 15 13 6 5 9 12 12 12 10 15 8 19 14 13 7 4 4 1 2 8 7 8 6 9 3 6 6 4 7 14 13 17 19 33 49 72
7 3 5 1 8 2 3 5 6 6 10 7 8 8 8 10 9 8 11 13 37 17 10 11 6 7 6 2 7 6 4 8 12 11 3 2 2 12 12 13 17 22 16 20 29
5 5 3 9 5 2 3 7 5 7 5 2 6 8 4 8 10 11 10 21 33 18 14 10 5 5 3 6 6 2 5 5 8 4 8 8 7 9 13 15 27 28 29 16 11
6 3 3 5 8 12 6 5 5 8 6 6 6 12 4 5 5 11 16 10 25 20 26 8 4 3 4 7 3 5 8 3 4 4 9 4 8 13 18 16 21 35 30 26 24
5 2 5 2 5 4 6 5 1 5 5 16 2 15 14 7 8 12 11 12 9 25 13 7 5 5 7 7 4 3 8 12 6 4 4 7 8 2 6 16 17 32 38 34 27
7 12 8 5 4 2 3 5 3 5 3 5 6 9 10 6 9 9 13 9 6 11 10 9 3 4 7 9 9 5 8 13 10 3 7 5 2 5 7 21 29 33 33 34 35
12 16 8 2 2 6 6 7 2 4 3 5 9 5 10 8 20 28 24 28 11 12 11 8 5 6 5 7 7 8 5 1 5 3 1 5 4 8 10 16 26 29 32 32 30
Wind_Direction_500mb
319 309 303 301 301 304 303 307 306 301 299 301 301 302 299 292 285 282 267 255 250 227 226 228 226 231 231 221 198 167 150 207 203 171 235 23 315 193 203 158 163 186 189 199 169
317 315 313 312 306 303 299 302 302 300 294 296 296 294 300 302 294 280 281 269 257 241 227 219 221 220 216 221 191 178 175 204 203 209 130 353 2 314 180 159 170 182 173 165 170
323 319 313 308 304 300 299 299 297 299 296 287 298 300 301 310 304 293 309 279 250 237 235 225 216 229 211 209 201 191 198 197 242 214 356 332 327 323 208 246 190 179 165 168 172
315 317 314 309 303 301 295 293 299 298 299 288 286 287 288 290 270 150 54 84 115 227 222 229 237 251 208 207 202 182 209 178 234 204 348 328 315 305 238 222 218 192 176 174 178
314 316 315 311 307 301 294 295 298 303 299 290 285 282 273 253 250 230 225 332 252 253 231 231 246 255 269 205 206 223 184 218 224 279 297 303 293 274 280 275 230 188 177 180 185
320 319 315 307 301 298 298 298 301 299 295 288 276 263 266 259 281 284 247 249 242 228 216 221 231 249 292 251 199 190 219 196 207 248 296 295 282 209 269 280 200 186 184 188 190
323 315 307 299 294 292 292 295 295 295 293 281 272 262 260 243 265 272 270 270 257 231 229 225 243 248 291 266 245 196 202 230 243 251 271 324 287 201 251 251 192 187 190 193 194
318 312 305 296 290 287 291 293 299 295 286 276 276 265 259 267 274 277 271 252 241 224 232 227 228 251 257 276 319 217 200 209 218 226 245 200 256 249 260 222 202 194 193 194 197
328 333 332 314 299 295 297 305 306 286 277 283 272 242 261 263 258 284 237 261 246 236 241 250 241 227 249 236 259 201 209 210 210 196 207 202 245 261 251 225 194 200 199 197 198
346 350 355 354 325 314 321 323 290 285 266 258 247 258 242 243 246 218 333 265 253 245 252 217 224 220 223 215 222 212 209 205 205 193 199 230 241 261 271 214 202 201 201 199 201
358 3 8 13 2 352 350 25 0 287 227 231 244 226 274 277 282 267 267 281 218 202 204 192 210 218 220 221 236 278 240 216 214 183 200 216 239 260 259 241 213 200 196 202 209
356 356 359 359 355 18 21 24 332 312 296 276 265 261 268 278 276 253 267 213 179 213 199 203 216 218 228 231 228 252 271 214 173 191 194 213 228 243 247 248 214 207 205 210 207
354 350 348 341 334 358 344 318 323 327 286 296 268 256 275 274 248 270 227 206 202 204 199 208 216 211 216 231 226 248 255 210 156 186 201 128 233 240 246 239 237 221 223 216 208
343 343 345 350 26 313 317 308 326 320 286 279 238 258 326 315 261 260 223 206 217 208 208 220 220 195 213 237 205 251 246 199 175 159 205 193 238 229 236 242 225 213 215 209 209
326 334 338 343 332 316 298 316 322 111 351 264 282 292 305 245 298 248 209 199 230 166 161 211 193 199 222 223 203 241 220 216 180 178 135 195 223 244 212 225 229 210 208 205 213
313 322 320 318 307 298 320 330 278 23 261 329 305 331 309 279 239 277 188 207 202 188 246 218 132 200 225 239 207 231 167 164 190 193 219 204 213 216 218 219 220 204 204 205 211
311 308 304 296 294 323 323 76 9 182 346 312 327 324 310 277 294 250 182 176 210 186 185 177 215 248 236 201 192 221 190 146 190 186 216 172 211 239 227 216 213 213 204 209 214
309 303 296 268 314 331 265 56 46 242 268 340 317 312 276 283 244 242 257 199 203 130 161 202 220 194 220 186 185 206 183 163 172 184 157 135 234 243 226 257 249 235 213 211 212
317 304 244 198 337 336 248 60 197 232 265 313 314 299 297 304 295 328 320 280 278 189 234 169 140 275 64 49 153 159 206 127 89 9 99 212 298 286 253 238 230 236 213 210 207
320 301 193 260 339 157 82 169 232 218 264 325 291 341 306 319 324 339 341 343 340 253 253 243 102 14 348 50 4 173 122 165 119 166 188 267 283 251 332 318 262 230 207 210 211
306 217 182 328 144 150 136 222 244 252 220 218 288 289 293 303 307 318 351 1 354 329 355 330 40 49 212 1 164 148 153 80 88 155 201 143 293 266 286 305 304 293 235 218 217
259 51 189 316 62 75 132 204 283 304 208 253 258 277 280 296 308 315 340 344 340 328 354 3 69 73 68 345 354 345 162 141 194 188 186 109 306 332 351 341 338 5 348 216 219
229 177 209 187 128 175 275 287 272 345 301 248 281 266 205 297 316 1 347 345 354 16 4 358 32 95 54 30 36 132 311 78 94 73 183 151 157 349 14 5 15 31 29 52 78
192 63 100 103 94 127 152 293 305 283 281 331 347 317 326 308 313 333 343 349 354 358 351 358 36 29 102 114 136 174 162 159 91 145 145 196 161 4 7 13 11 28 41 38 48
200 164 148 227 337 106 170 201 271 6 339 16 327 11 342 325 315 345 345 322 345 358 352 29 49 43 46 55 51 22 165 171 148 76 170 152 177 225 359 12 12 33 42 43 41
191 144 118 123 121 101 352 270 192 296 25 358 343 323 343 7 345 322 340 358 339 328 353 333 60 20 19 30 56 60 28 179 198 197 268 316 60 180 157 22 15 28 27 39 43
171 149 149 344 113 102 222 208 207 269 203 93 321 317 328 291 302 289 297 301 294 326 343 360 7 20 315 345 33 39 2 216 110 20 179 252 356 309 323 43 26 30 39 34 23
Wind_Speed_850mb
24 24 27 27 27 25 28 26 27 26 22 24 22 23 28 30 32 37 47 45 37 37 34 26 39 40 43 26 21 14 5 10 13 13 8 13 5 2 28 33 26 43 23 25 71
25 27 31 32 29 25 27 27 28 25 18 21 20 20 28 29 32 48 49 44 44 36 44 33 29 39 28 23 21 15 9 17 10 5 3 13 15 20 6 31 11 28 31 48 78
32 37 36 33 32 28 19 25 26 20 17 16 18 20 24 25 35 14 7 23 35 33 42 47 33 38 27 24 26 17 13 11 11 5 12 12 19 16 9 10 27 50 50 81 86
39 43 36 31 29 21 19 25 24 23 21 18 18 17 20 20 8 13 11 12 14 13 32 45 51 22 32 22 31 11 28 20 15 1 9 9 25 27 21 18 29 41 56 85 89
42 38 34 31 29 27 25 26 26 25 21 19 17 15 23 20 42 18 15 6 4 5 25 35 47 34 24 30 32 28 15 37 37 24 16 15 18 16 41 35 17 45 67 87 86
35 35 35 34 33 32 29 29 26 24 22 19 17 16 24 26 33 22 20 30 39 26 17 31 23 41 42 22 45 32 29 13 28 20 16 14 21 4 20 16 33 55 73 80 86
37 41 42 41 35 33 30 28 25 22 20 19 19 18 39 54 37 34 34 36 23 45 39 33 27 35 25 21 37 33 25 29 34 14 6 10 21 17 51 28 43 65 74 79 85
40 41 41 36 30 29 26 25 21 20 21 23 20 24 32 37 35 50 43 55 43 39 34 32 39 41 39 40 26 26 23 26 37 39 22 9 30 18 25 35 47 63 72 78 85
35 33 29 19 16 19 22 19 17 23 26 21 23 26 22 27 29 17 16 32 40 54 45 37 32 30 26 26 20 33 22 52 36 61 35 30 7 34 40 37 49 60 74 78 82
27 25 21 13 10 13 16 18 9 15 11 18 28 15 37 29 21 16 16 21 25 35 27 38 29 13 21 24 29 28 48 40 45 36 51 44 25 22 29 42 53 62 69 72 81
23 21 17 13 11 13 16 7 8 6 12 22 24 35 38 43 46 50 38 17 30 27 23 29 21 32 49 38 39 28 32 48 28 24 41 60 41 33 37 30 36 45 60 76 86
18 18 17 14 12 9 14 8 9 17 24 40 58 72 71 61 30 30 23 17 24 29 30 10 41 46 32 28 39 51 36 36 13 28 35 40 53 41 28 29 43 54 59 81 74
14 14 15 15 6 8 15 13 16 32 10 20 20 23 17 12 18 27 24 28 15 29 39 38 20 33 33 37 33 46 33 33 18 21 20 9 27 33 31 46 42 60 81 82 84
12 13 16 16 3 13 11 10 32 25 6 10 7 6 8 15 14 33 27 22 15 36 20 27 32 25 28 34 34 26 28 27 29 29 20 25 22 42 41 26 24 48 66 63 77
12 15 14 15 13 6 12 20 28 2 8 6 7 10 16 14 24 6 40 23 12 23 12 16 24 35 29 41 36 30 29 27 22 26 11 24 16 35 33 52 43 30 56 70 86
15 17 19 17 16 12 18 23 4 2 12 14 9 11 13 15 5 8 20 22 14 11 12 17 5 28 23 21 48 31 29 9 17 19 17 25 22 21 40 42 46 25 54 75 85
16 16 21 16 12 15 20 2 3 3 8 18 11 18 19 10 7 6 15 16 9 10 10 11 25 11 25 33 30 38 26 6 10 11 11 25 20 35 12 34 33 43 54 79 90
16 18 18 9 8 15 2 8 6 8 9 7 14 32 9 7 7 6 3 11 12 5 7 17 15 28 13 22 27 46 26 10 12 12 6 11 18 22 26 46 36 52 72 78 95
17 16 8 7 17 8 2 8 11 8 5 13 24 9 7 6 8 7 5 4 5 15 8 12 2 7 2 4 8 19 10 8 10 5 6 9 5 14 14 22 29 31 50 65 86
15 7 8 4 12 5 7 5 6 8 5 2 6 6 9 16 13 12 13 8 6 3 5 5 9 8 11 9 6 4 12 8 4 11 8 4 6 11 9 16 14 15 33 62 70
13 4 9 12 3 3 6 8 8 15 13 6 5 9 12 12 12 10 15 8 19 14 13 7 4 4 1 2 8 7 8 6 9 3 6 6 4 7 14 13 17 19 33 49 72
7 3 5 1 8 2 3 5 6 6 10 7 8 8 8 10 9 8 11 13 37 17 10 11 6 7 6 2 7 6 4 8 12 11 3 2 2 12 12 13 17 22 16 20 29
5 5 3 9 5 2 3 7 5 7 5 2 6 8 4 8 10 11 10 21 33 18 14 10 5 5 3 6 6 2 5 5 8 4 8 8 7 9 13 15 27 28 29 16 11
6 3 3 5 8 12 6 5 5 8 6 6 6 12 4 5 5 11 16 10 25 20 26 8 4 3 4 7 3 5 8 3 4 4 9 4 8 13 18 16 21 35 30 26 24
5 2 5 2 5 4 6 5 1 5 5 16 2 15 14 7 8 12 11 12 9 25 13 7 5 5 7 7 4 3 8 12 6 4 4 7 8 2 6 16 17 32 38 34 27
7 12 8 5 4 2 3 5 3 5 3 5 6 9 10 6 9 9 13 9 6 11 10 9 3 4 7 9 9 5 8 13 10 3 7 5 2 5 7 21 29 33 33 34 35
12 16 8 2 2 6 6 7 2 4 3 5 9 5 10 8 20 28 24 28 11 12 11 8 5 6 5 7 7 8 5 1 5 3 1 5 4 8 10 16 26 29 32 32 30
Wind_Direction_850mb
319 309 303 301 301 304 303 307 306 301 299 301 301 302 299 292 285 282 267 255 250 227 226 228 226 231 231 221 198 167 150 207 203 171 235 23 315 193 203 158 163 186 189 199 169
317 315 313 312 306 303 299 302 302 300 294 296 296 294 300 302 294 280 281 269 257 241 227 219 221 220 216 221 191 178 175 204 203 209 130 353 2 314 180 159 170 182 173 165 170
323 319 313 308 304 300 299 299 297 299 296 287 298 300 301 310 304 293 309 279 250 237 235 225 216 229 211 209 201 191 198 197 242 214 356 332 327 323 208 246 190 179 165 168 172
315 317 314 309 303 301 295 293 299 298 299 288 286 287 288 290 270 150 54 84 115 227 222 229 237 251 208 207 202 182 209 178 234 204 348 328 315 305 238 222 218 192 176 174 178
314 316 315 311 307 301 294 295 298 303 299 290 285 282 273 253 250 230 225 332 252 253 231 231 246 255 269 205 206 223 184 218 224 279 297 303 293 274 280 275 230 188 177 180 185
320 319 315 307 301 298 298 298 301 299 295 288 276 263 266 259 281 284 247 249 242 228 216 221 231 249 292 251 199 190 219 196 207 248 296 295 282 209 269 280 200 186 184 188 190
323 315 307 299 294 292 292 295 295 295 293 281 272 262 260 243 265 272 270 270 257 231 229 225 243 248 291 266 245 196 202 230 243 251 271 324 287 201 251 251 192 187 190 193 194
318 312 305 296 290 287 291 293 299 295 286 276 276 265 259 267 274 277 271 252 241 224 232 227 228 251 257 276 319 217 200 209 218 226 245 200 256 249 260 222 202 194 193 194 197
328 333 332 314 299 295 297 305 306 286 277 283 272 242 261 263 258 284 237 261 246 236 241 250 241 227 249 236 259 201 209 210 210 196 207 202 245 261 251 225 194 200 199 197 198
346 350 355 354 325 314 321 323 290 285 266 258 247 258 242 243 246 218 333 265 253 245 252 217 224 220 223 215 222 212 209 205 205 193 199 230 241 261 271 214 202 201 201 199 201
358 3 8 13 2 352 350 25 0 287 227 231 244 226 274 277 282 267 267 281 218 202 204 192 210 218 220 221 236 278 240 216 214 183 200 216 239 260 259 241 213 200 196 202 209
356 356 359 359 355 18 21 24 332 312 296 276 265 261 268 278 276 253 267 213 179 213 199 203 216 218 228 231 228 252 271 214 173 191 194 213 228 243 247 248 214 207 205 210 207
354 350 348 341 334 358 344 318 323 327 286 296 268 256 275 274 248 270 227 206 202 204 199 208 216 211 216 231 226 248 255 210 156 186 201 128 233 240 246 239 237 221 223 216 208
343 343 345 350 26 313 317 308 326 320 286 279 238 258 326 315 261 260 223 206 217 208 208 220 220 195 213 237 205 251 246 199 175 159 205 193 238 229 236 242 225 213 215 209 209
326 334 338 343 332 316 298 316 322 111 351 264 282 292 305 245 298 248 209 199 230 166 161 211 193 199 222 223 203 241 220 216 180 178 135 195 223 244 212 225 229 210 208 205 213
313 322 320 318 307 298 320 330 278 23 261 329 305 331 309 279 239 277 188 207 202 188 246 218 132 200 225 239 207 231 167 164 190 193 219 204 213 216 218 219 220 204 204 205 211
311 308 304 296 294 323 323 76 9 182 346 312 327 324 310 277 294 250 182 176 210 186 185 177 215 248 236 201 192 221 190 146 190 186 216 172 211 239 227 216 213 213 204 209 214
309 303 296 268 314 331 265 56 46 242 268 340 317 312 276 283 244 242 257 199 203 130 161 202 220 194 220 186 185 206 183 163 172 184 157 135 234 243 226 257 249 235 213 211 212
317 304 244 198 337 336 248 60 197 232 265 313 314 299 297 304 295 328 320 280 278 189 234 169 140 275 64 49 153 159 206 127 89 9 99 212 298 286 253 238 230 236 213 210 207
320 301 193 260 339 157 82 169 232 218 264 325 291 341 306 319 324 339 341 343 340 253 253 243 102 14 348 50 4 173 122 165 119 166 188 267 283 251 332 318 262 230 207 210 211
306 217 182 328 144 150 136 222 244 252 220 218 288 289 293 303 307 318 351 1 354 329 355 330 40 49 212 1 164 148 153 80 88 155 201 143 293 266 286 305 304 293 235 218 217
259 51 189 316 62 75 132 204 283 304 208 253 258 277 280 296 308 315 340 344 340 328 354 3 69 73 68 345 354 345 162 141 194 188 186 109 306 332 351 341 338 5 348 216 219
229 177 209 187 128 175 275 287 272 345 301 248 281 266 205 297 316 1 347 345 354 16 4 358 32 95 54 30 36 132 311 78 94 73 183 151 157 349 14 5 15 31 29 52 78
192 63 100 103 94 127 152 293 305 283 281 331 347 317 326 308 313 333 343 349 354 358 351 358 36 29 102 114 136 174 162 159 91 145 145 196 161 4 7 13 11 28 41 38 48
200 164 148 227 337 106 170 201 271 6 339 16 327 11 342 325 315 345 345 322 345 358 352 29 49 43 46 55 51 22 165 171 148 76 170 152 177 225 359 12 12 33 42 43 41
191 144 118 123 121 101 352 270 192 296 25 358 343 323 343 7 345 322 340 358 339 328 353 333 60 20 19 30 56 60 28 179 198 197 268 316 60 180 157 22 15 28 27 39 43
171 149 149 344 113 102 222 208 207 269 203 93 321 317 328 291 302 289 297 301 294 326 343 360 7 20 315 345 33 39 2 216 110 20 179 252 356 309 323 43 26 30 39 34 23